Location: Unspecified
(0.0000°N, 0.0000°E)
Time: 08:15:20
(UTC+02:00)

Cosmos 1812 Rocket - Visible Passes

Search period start: 21 August 2014 00:00
Search period end: 31 August 2014 00:00
Orbit: 607 x 634 km, 82.5° (Epoch: 20 August)

Date Brightness Start Highest point End Pass type
(mag) Time Alt. Az. Time Alt. Az. Time Alt. Az.
22 Aug 4.6 21:39:44 33° NNE 21:39:44 33° NNE 21:42:10 10° N visible
23 Aug 4.5 21:51:34 10° SSW 21:55:43 46° W 21:59:51 10° NNW visible
24 Aug 5.1 20:33:33 10° SE 20:35:57 15° E 20:38:21 10° ENE visible
24 Aug 6.0 22:10:25 10° SW 22:13:34 20° W 22:16:43 10° NW visible
25 Aug 4.1 20:49:54 10° SSE 20:53:49 33° E 20:57:42 10° NNE visible
26 Aug 3.4 21:07:20 10° S 21:11:40 83° E 21:15:58 10° N visible
27 Aug 4.9 21:25:28 10° SSW 21:29:30 39° W 21:33:32 10° NNW visible
28 Aug 6.4 21:44:31 10° SW 21:47:21 17° W 21:50:11 10° NW visible
29 Aug 4.0 20:23:34 10° SSE 20:27:36 39° E 20:31:37 10° NNE visible
30 Aug 3.6 20:41:07 10° S 20:45:27 85° W 20:49:46 10° N visible
